Year,Month,Day,Hour,Minute,Value (Times are PST for temperature in C)
2011,10,16,00,00,6.90
2011,10,16,00,01,6.90
2011,10,16,00,02,6.90
2011,10,16,00,03,6.90
2011,10,16,00,04,6.90
2011,10,16,00,05,6.90
2011,10,16,00,06,6.90
2011,10,16,00,07,6.90
2011,10,16,00,08,6.90
2011,10,16,00,09,6.90
2011,10,16,00,10,6.90
2011,10,16,00,11,6.90
2011,10,16,00,12,6.90
2011,10,16,00,13,6.90
2011,10,16,00,14,6.90
2011,10,16,00,15,6.90
2011,10,16,00,16,6.80
2011,10,16,00,17,6.80
2011,10,16,00,18,6.80
2011,10,16,00,19,6.80
2011,10,16,00,20,6.70
2011,10,16,00,21,6.70
2011,10,16,00,22,6.70
2011,10,16,00,23,6.70
2011,10,16,00,24,6.60
2011,10,16,00,25,6.60
2011,10,16,00,26,6.60
2011,10,16,00,27,6.60
2011,10,16,00,28,6.60
2011,10,16,00,29,6.60
2011,10,16,00,30,6.60
2011,10,16,00,31,6.70
2011,10,16,00,32,6.70
2011,10,16,00,33,6.70
2011,10,16,00,34,6.70
2011,10,16,00,35,6.70
2011,10,16,00,36,6.70
2011,10,16,00,37,6.60
2011,10,16,00,38,6.60
2011,10,16,00,39,6.60
2011,10,16,00,40,6.60
2011,10,16,00,41,6.60
2011,10,16,00,42,6.60
2011,10,16,00,43,6.50
2011,10,16,00,44,6.50
2011,10,16,00,45,6.50
2011,10,16,00,46,6.50
2011,10,16,00,47,6.50
2011,10,16,00,48,6.40
2011,10,16,00,49,6.40
2011,10,16,00,50,6.40
2011,10,16,00,51,6.40
2011,10,16,00,52,6.40
2011,10,16,00,53,6.40
2011,10,16,00,54,6.40
2011,10,16,00,55,6.30
2011,10,16,00,56,6.30
2011,10,16,00,57,6.30
2011,10,16,00,58,6.30
2011,10,16,00,59,6.30
2011,10,16,01,00,6.30
2011,10,16,01,01,6.20
2011,10,16,01,02,6.20
2011,10,16,01,03,6.20
2011,10,16,01,04,6.20
2011,10,16,01,05,6.20
2011,10,16,01,06,6.20
2011,10,16,01,07,6.20
2011,10,16,01,08,6.20
2011,10,16,01,09,6.20
2011,10,16,01,10,6.20
2011,10,16,01,11,6.20
2011,10,16,01,12,6.10
2011,10,16,01,13,6.10
2011,10,16,01,14,6.10
2011,10,16,01,15,6.10
2011,10,16,01,16,6.10
2011,10,16,01,17,6.00
2011,10,16,01,18,6.00
2011,10,16,01,19,6.00
2011,10,16,01,20,6.00
2011,10,16,01,21,5.90
2011,10,16,01,22,5.90
2011,10,16,01,23,5.90
2011,10,16,01,24,5.90
2011,10,16,01,25,5.90
2011,10,16,01,26,5.80
2011,10,16,01,27,5.80
2011,10,16,01,28,5.80
2011,10,16,01,29,5.80
2011,10,16,01,30,5.80
2011,10,16,01,31,5.90
2011,10,16,01,32,5.90
2011,10,16,01,33,5.90
2011,10,16,01,34,5.90
2011,10,16,01,35,5.80
2011,10,16,01,36,5.80
2011,10,16,01,37,5.80
2011,10,16,01,38,5.80
2011,10,16,01,39,5.80
2011,10,16,01,40,5.80
2011,10,16,01,41,5.80
2011,10,16,01,42,5.80
2011,10,16,01,43,5.80
2011,10,16,01,44,5.80
2011,10,16,01,45,5.80
2011,10,16,01,46,5.80
2011,10,16,01,47,5.80
2011,10,16,01,48,5.80
2011,10,16,01,49,5.80
2011,10,16,01,50,5.80
2011,10,16,01,51,5.80
2011,10,16,01,52,5.80
2011,10,16,01,53,5.80
2011,10,16,01,54,5.70
2011,10,16,01,55,5.80
2011,10,16,01,56,5.80
2011,10,16,01,57,5.80
2011,10,16,01,58,5.80
2011,10,16,01,59,5.80
2011,10,16,02,00,5.80
2011,10,16,02,01,5.80
2011,10,16,02,02,5.80
2011,10,16,02,03,5.80
2011,10,16,02,04,5.80
2011,10,16,02,05,5.80
2011,10,16,02,06,5.90
2011,10,16,02,07,5.90
2011,10,16,02,08,5.90
2011,10,16,02,09,5.90
2011,10,16,02,10,5.90
2011,10,16,02,11,5.90
2011,10,16,02,12,5.90
2011,10,16,02,13,5.90
2011,10,16,02,14,5.90
2011,10,16,02,15,5.80
2011,10,16,02,16,5.80
2011,10,16,02,17,5.80
2011,10,16,02,18,5.80
2011,10,16,02,19,5.80
2011,10,16,02,20,5.80
2011,10,16,02,21,5.80
2011,10,16,02,22,5.80
2011,10,16,02,23,5.80
2011,10,16,02,24,5.80
2011,10,16,02,25,5.80
2011,10,16,02,26,5.80
2011,10,16,02,27,5.80
2011,10,16,02,28,5.70
2011,10,16,02,29,5.70
2011,10,16,02,30,5.70
2011,10,16,02,31,5.70
2011,10,16,02,32,5.70
2011,10,16,02,33,5.60
2011,10,16,02,34,5.60
2011,10,16,02,35,5.60
2011,10,16,02,36,5.60
2011,10,16,02,37,5.60
2011,10,16,02,38,5.60
2011,10,16,02,39,5.50
2011,10,16,02,40,5.50
2011,10,16,02,41,5.50
2011,10,16,02,42,5.50
2011,10,16,02,43,5.40
2011,10,16,02,44,5.40
2011,10,16,02,45,5.40
2011,10,16,02,46,5.40
2011,10,16,02,47,5.40
2011,10,16,02,48,5.40
2011,10,16,02,49,5.30
2011,10,16,02,50,5.30
2011,10,16,02,51,5.30
2011,10,16,02,52,5.30
2011,10,16,02,53,5.30
2011,10,16,02,54,5.30
2011,10,16,02,55,5.30
2011,10,16,02,56,5.30
2011,10,16,02,57,5.30
2011,10,16,02,58,5.30
2011,10,16,02,59,5.30
2011,10,16,03,00,5.30
2011,10,16,03,01,5.30
2011,10,16,03,02,5.30
2011,10,16,04,02,5.20
2011,10,16,04,03,5.20
2011,10,16,04,04,5.20
2011,10,16,04,05,5.20
2011,10,16,04,06,5.20
2011,10,16,04,07,5.20
2011,10,16,04,08,5.20
2011,10,16,04,09,5.20
2011,10,16,04,10,5.20
2011,10,16,04,11,5.20
2011,10,16,04,12,5.20
2011,10,16,04,13,5.20
2011,10,16,04,14,5.20
2011,10,16,04,15,5.20
2011,10,16,04,16,5.20
2011,10,16,04,17,5.20
2011,10,16,04,18,5.20
2011,10,16,04,19,5.20
2011,10,16,04,20,5.20
2011,10,16,04,21,5.20
2011,10,16,04,22,5.20
2011,10,16,04,23,5.10
2011,10,16,04,24,5.10
2011,10,16,04,25,5.10
2011,10,16,04,26,5.10
2011,10,16,04,27,5.00
2011,10,16,04,28,5.00
2011,10,16,04,29,5.00
2011,10,16,04,30,5.00
2011,10,16,04,31,5.00
2011,10,16,04,32,5.00
2011,10,16,04,33,5.00
2011,10,16,04,34,4.90
2011,10,16,04,35,4.90
2011,10,16,04,36,4.90
2011,10,16,04,37,4.90
2011,10,16,04,38,4.90
2011,10,16,04,39,4.90
2011,10,16,04,40,4.90
2011,10,16,04,41,4.90
2011,10,16,04,42,4.90
2011,10,16,04,43,4.90
2011,10,16,04,44,4.90
2011,10,16,04,45,4.80
2011,10,16,04,46,4.80
2011,10,16,04,47,4.80
2011,10,16,04,48,4.80
2011,10,16,04,49,4.80
2011,10,16,04,50,4.80
2011,10,16,04,51,4.80
2011,10,16,04,52,4.80
2011,10,16,04,53,4.70
2011,10,16,04,54,4.70
2011,10,16,04,55,4.70
2011,10,16,04,56,4.70
2011,10,16,04,57,4.70
2011,10,16,04,58,4.70
2011,10,16,04,59,4.70
2011,10,16,05,00,4.70
2011,10,16,05,01,4.60
2011,10,16,05,02,4.60
2011,10,16,05,03,4.60
2011,10,16,05,04,4.60
2011,10,16,05,05,4.60
2011,10,16,05,06,4.60
2011,10,16,05,07,4.60
2011,10,16,05,08,4.60
2011,10,16,05,09,4.60
2011,10,16,05,10,4.60
2011,10,16,05,11,4.60
2011,10,16,05,12,4.60
2011,10,16,05,13,4.60
2011,10,16,05,14,4.60
2011,10,16,05,15,4.60
2011,10,16,05,16,4.60
2011,10,16,05,17,4.60
2011,10,16,05,18,4.60
2011,10,16,05,19,4.50
2011,10,16,05,20,4.50
2011,10,16,05,21,4.50
2011,10,16,05,22,4.50
2011,10,16,05,23,4.50
2011,10,16,05,24,4.50
2011,10,16,05,25,4.50
2011,10,16,05,26,4.50
2011,10,16,05,27,4.50
2011,10,16,05,28,4.50
2011,10,16,05,29,4.50
2011,10,16,05,30,4.50
2011,10,16,05,31,4.50
2011,10,16,05,32,4.50
2011,10,16,05,33,4.50
2011,10,16,05,34,4.60
2011,10,16,05,35,4.50
2011,10,16,05,36,4.60
2011,10,16,05,37,4.60
2011,10,16,05,38,4.60
2011,10,16,05,39,4.60
2011,10,16,05,40,4.60
2011,10,16,05,41,4.60
2011,10,16,05,42,4.60
2011,10,16,05,43,4.60
2011,10,16,05,44,4.60
2011,10,16,05,45,4.60
2011,10,16,05,46,4.60
2011,10,16,05,47,4.60
2011,10,16,05,48,4.60
2011,10,16,05,49,4.60
2011,10,16,05,50,4.60
2011,10,16,05,51,4.60
2011,10,16,05,52,4.60
2011,10,16,05,53,4.60
2011,10,16,05,54,4.60
2011,10,16,05,55,4.60
2011,10,16,05,56,4.60
2011,10,16,05,57,4.60
2011,10,16,05,58,4.60
2011,10,16,05,59,4.60
2011,10,16,06,00,4.60
2011,10,16,06,01,4.60
2011,10,16,06,02,4.60
2011,10,16,06,03,4.60
2011,10,16,06,04,4.60
2011,10,16,06,05,4.60
2011,10,16,06,06,4.60
2011,10,16,06,07,4.60
2011,10,16,06,08,4.60
2011,10,16,06,09,4.60
2011,10,16,06,10,4.60
2011,10,16,06,11,4.60
2011,10,16,06,12,4.50
2011,10,16,06,13,4.50
2011,10,16,06,14,4.50
2011,10,16,06,15,4.50
2011,10,16,06,16,4.50
2011,10,16,06,17,4.50
2011,10,16,06,18,4.50
2011,10,16,06,19,4.50
2011,10,16,06,20,4.50
2011,10,16,06,21,4.40
2011,10,16,06,22,4.40
2011,10,16,06,23,4.40
2011,10,16,06,24,4.40
2011,10,16,06,25,4.40
2011,10,16,06,26,4.40
2011,10,16,06,27,4.40
2011,10,16,06,28,4.40
2011,10,16,06,29,4.30
2011,10,16,06,30,4.30
2011,10,16,06,31,4.30
2011,10,16,06,32,4.30
2011,10,16,06,33,4.30
2011,10,16,06,34,4.30
2011,10,16,06,35,4.30
2011,10,16,06,36,4.30
2011,10,16,06,37,4.30
2011,10,16,06,38,4.30
2011,10,16,06,39,4.30
2011,10,16,06,40,4.30
2011,10,16,06,41,4.30
2011,10,16,06,42,4.30
2011,10,16,06,43,4.30
2011,10,16,06,44,4.30
2011,10,16,06,45,4.30
2011,10,16,06,46,4.30
2011,10,16,06,47,4.30
2011,10,16,06,48,4.30
2011,10,16,06,49,4.30
2011,10,16,06,50,4.20
2011,10,16,06,51,4.20
2011,10,16,06,52,4.20
2011,10,16,06,53,4.20
2011,10,16,06,54,4.20
2011,10,16,06,55,4.20
2011,10,16,06,56,4.20
2011,10,16,06,57,4.20
2011,10,16,06,58,4.20
2011,10,16,06,59,4.20
2011,10,16,07,00,4.10
2011,10,16,07,01,4.10
2011,10,16,07,02,4.10
2011,10,16,07,03,4.10
2011,10,16,07,04,4.00
2011,10,16,07,05,4.00
2011,10,16,07,06,4.00
2011,10,16,07,07,4.00
2011,10,16,07,08,3.90
2011,10,16,07,09,3.90
2011,10,16,07,10,3.90
2011,10,16,07,11,3.90
2011,10,16,07,12,3.90
2011,10,16,07,13,3.90
2011,10,16,07,14,3.90
2011,10,16,07,15,3.90
2011,10,16,07,16,3.80
2011,10,16,07,17,3.80
2011,10,16,07,18,3.80
2011,10,16,07,19,3.80
2011,10,16,07,20,3.80
2011,10,16,07,21,3.80
2011,10,16,07,22,3.80
2011,10,16,07,23,3.80
2011,10,16,07,24,3.80
2011,10,16,07,25,3.80
2011,10,16,07,26,3.80
2011,10,16,07,27,3.80
2011,10,16,07,28,3.80
2011,10,16,07,29,3.70
2011,10,16,07,30,3.70
2011,10,16,07,31,3.70
2011,10,16,07,32,3.70
2011,10,16,07,33,3.70
2011,10,16,07,34,3.70
2011,10,16,07,35,3.70
2011,10,16,07,36,3.70
2011,10,16,07,37,3.70
2011,10,16,07,38,3.70
2011,10,16,07,39,3.70
2011,10,16,07,40,3.70
2011,10,16,07,41,3.70
2011,10,16,07,42,3.70
2011,10,16,07,43,3.70
2011,10,16,07,44,3.70
2011,10,16,07,45,3.80
2011,10,16,07,46,3.80
2011,10,16,07,47,3.80
2011,10,16,07,48,3.80
2011,10,16,07,49,3.80
2011,10,16,07,50,3.80
2011,10,16,07,51,3.80
2011,10,16,07,52,3.80
2011,10,16,07,53,3.80
2011,10,16,07,54,3.80
2011,10,16,07,55,3.80
2011,10,16,07,56,3.80
2011,10,16,07,57,3.90
2011,10,16,07,58,3.90
2011,10,16,07,59,3.90
2011,10,16,08,00,3.90
2011,10,16,08,01,3.90
2011,10,16,08,02,3.90
2011,10,16,08,03,3.90
2011,10,16,08,04,4.00
2011,10,16,08,05,4.00
2011,10,16,08,06,4.00
2011,10,16,08,07,4.10
2011,10,16,08,08,4.10
2011,10,16,08,09,4.10
2011,10,16,08,10,4.10
2011,10,16,08,11,4.10
2011,10,16,08,12,4.20
2011,10,16,08,13,4.20
2011,10,16,08,14,4.20
2011,10,16,08,15,4.20
2011,10,16,08,16,4.20
2011,10,16,08,17,4.20
2011,10,16,08,18,4.20
2011,10,16,08,19,4.20
2011,10,16,08,20,4.30
2011,10,16,08,21,4.30
2011,10,16,08,22,4.30
2011,10,16,08,23,4.30
2011,10,16,08,24,4.40
2011,10,16,08,25,4.40
2011,10,16,08,26,4.40
2011,10,16,08,27,4.50
2011,10,16,08,28,4.50
2011,10,16,08,29,4.60
2011,10,16,08,30,4.60
2011,10,16,08,31,4.60
2011,10,16,08,32,4.60
2011,10,16,08,33,4.60
2011,10,16,08,34,4.70
2011,10,16,08,35,4.70
2011,10,16,08,36,4.70
2011,10,16,08,37,4.70
2011,10,16,08,38,4.70
2011,10,16,08,39,4.70
2011,10,16,08,40,4.70
2011,10,16,08,41,4.80
2011,10,16,08,42,4.80
2011,10,16,08,43,4.80
2011,10,16,08,44,4.80
2011,10,16,08,45,4.90
2011,10,16,08,46,4.90
2011,10,16,08,47,4.90
2011,10,16,08,48,4.90
2011,10,16,08,49,5.00
2011,10,16,08,50,5.00
2011,10,16,08,51,5.00
2011,10,16,08,52,5.10
2011,10,16,08,53,5.10
2011,10,16,08,54,5.10
2011,10,16,08,55,5.20
2011,10,16,08,56,5.20
2011,10,16,08,57,5.20
2011,10,16,08,58,5.20
2011,10,16,08,59,5.20
2011,10,16,09,00,5.30
2011,10,16,09,01,5.30
2011,10,16,09,02,5.30
2011,10,16,09,03,5.30
2011,10,16,09,04,5.30
2011,10,16,09,05,5.40
2011,10,16,09,06,5.40
2011,10,16,09,07,5.40
2011,10,16,09,08,5.40
2011,10,16,09,09,5.50
2011,10,16,09,10,5.50
2011,10,16,09,11,5.50
2011,10,16,09,12,5.60
2011,10,16,09,13,5.60
2011,10,16,09,14,5.60
2011,10,16,09,15,5.60
2011,10,16,09,16,5.70
2011,10,16,09,17,5.70
2011,10,16,09,18,5.70
2011,10,16,09,19,5.70
2011,10,16,09,20,5.80
2011,10,16,09,21,5.80
2011,10,16,09,22,5.80
2011,10,16,09,23,5.90
2011,10,16,09,24,5.90
2011,10,16,09,25,5.90
2011,10,16,09,26,6.00
2011,10,16,09,27,6.00
2011,10,16,09,28,6.10
2011,10,16,09,29,6.10
2011,10,16,09,30,6.10
2011,10,16,09,31,6.10
2011,10,16,09,32,6.20
2011,10,16,09,33,6.20
2011,10,16,09,34,6.30
2011,10,16,09,35,6.30
2011,10,16,09,36,6.40
2011,10,16,09,37,6.40
2011,10,16,09,38,6.50
2011,10,16,09,39,6.50
2011,10,16,09,40,6.60
2011,10,16,09,41,6.60
2011,10,16,09,42,6.70
2011,10,16,09,43,6.70
2011,10,16,09,44,6.70
2011,10,16,09,45,6.70
2011,10,16,09,46,6.70
2011,10,16,09,47,6.80
2011,10,16,09,48,6.80
2011,10,16,09,49,6.80
2011,10,16,09,50,6.80
2011,10,16,09,51,6.80
2011,10,16,09,52,6.80
2011,10,16,09,53,6.90
2011,10,16,09,54,6.90
2011,10,16,09,55,6.90
2011,10,16,09,56,7.00
2011,10,16,09,57,7.00
2011,10,16,09,58,7.10
2011,10,16,09,59,7.10
2011,10,16,10,00,7.10
2011,10,16,10,01,7.10
2011,10,16,10,02,7.20
2011,10,16,10,03,7.20
2011,10,16,10,04,7.20
2011,10,16,10,05,7.30
2011,10,16,10,06,7.30
2011,10,16,10,07,7.30
2011,10,16,10,08,7.30
2011,10,16,10,09,7.40
2011,10,16,10,10,7.40
2011,10,16,10,11,7.40
2011,10,16,10,12,7.50
2011,10,16,10,13,7.50
2011,10,16,10,14,7.60
2011,10,16,10,15,7.60
2011,10,16,10,16,7.70
2011,10,16,10,17,7.70
2011,10,16,10,18,7.80
2011,10,16,10,19,7.80
2011,10,16,10,20,7.80
2011,10,16,10,21,7.90
2011,10,16,10,22,7.90
2011,10,16,10,23,7.90
2011,10,16,10,24,7.90
2011,10,16,10,25,7.90
2011,10,16,10,26,7.90
2011,10,16,10,27,8.00
2011,10,16,10,28,8.00
2011,10,16,10,29,8.00
2011,10,16,10,30,8.10
2011,10,16,10,31,8.10
2011,10,16,10,32,8.10
2011,10,16,10,33,8.10
2011,10,16,10,34,8.10
2011,10,16,10,35,8.10
2011,10,16,10,36,8.20
2011,10,16,10,37,8.20
2011,10,16,10,38,8.20
2011,10,16,10,39,8.30
2011,10,16,10,40,8.30
2011,10,16,10,41,8.30
2011,10,16,10,42,8.40
2011,10,16,10,43,8.50
2011,10,16,10,44,8.50
2011,10,16,10,45,8.60
2011,10,16,10,46,8.60
2011,10,16,10,47,8.70
2011,10,16,10,48,8.70
2011,10,16,10,49,8.70
2011,10,16,10,50,8.80
2011,10,16,10,51,8.80
2011,10,16,10,52,8.90
2011,10,16,10,53,8.90
2011,10,16,10,54,9.00
2011,10,16,10,55,9.00
2011,10,16,10,56,9.10
2011,10,16,10,57,9.10
2011,10,16,10,58,9.10
2011,10,16,10,59,9.20
2011,10,16,11,00,9.20
2011,10,16,11,01,9.20
2011,10,16,11,02,9.20
2011,10,16,11,03,9.20
2011,10,16,11,04,9.20
2011,10,16,11,05,9.20
2011,10,16,11,06,9.20
2011,10,16,11,07,9.20
2011,10,16,11,08,9.20
2011,10,16,11,09,9.20
2011,10,16,11,10,9.20
2011,10,16,11,11,9.20
2011,10,16,11,12,9.30
2011,10,16,11,13,9.30
2011,10,16,11,14,9.40
2011,10,16,11,15,9.40
2011,10,16,11,16,9.40
2011,10,16,11,17,9.40
2011,10,16,11,18,9.40
2011,10,16,11,19,9.40
2011,10,16,11,20,9.40
2011,10,16,11,21,9.40
2011,10,16,11,22,9.40
2011,10,16,11,23,9.40
2011,10,16,11,24,9.40
2011,10,16,11,25,9.40
2011,10,16,11,26,9.50
2011,10,16,11,27,9.40
2011,10,16,11,28,9.40
2011,10,16,11,29,9.40
2011,10,16,11,30,9.40
2011,10,16,11,31,9.40
2011,10,16,11,32,9.40
2011,10,16,11,33,9.40
2011,10,16,11,34,9.40
2011,10,16,11,35,9.40
2011,10,16,11,36,9.40
2011,10,16,11,37,9.40
2011,10,16,11,38,9.40
2011,10,16,11,39,9.40
2011,10,16,11,40,9.40
2011,10,16,11,41,9.40
2011,10,16,11,42,9.40
2011,10,16,11,43,9.40
2011,10,16,11,44,9.40
2011,10,16,11,45,9.40
2011,10,16,11,46,9.40
2011,10,16,11,47,9.40
2011,10,16,11,48,9.40
2011,10,16,11,49,9.40
2011,10,16,11,50,9.40
2011,10,16,11,51,9.50
2011,10,16,11,52,9.50
2011,10,16,11,53,9.40
2011,10,16,11,54,9.40
2011,10,16,11,55,9.40
2011,10,16,11,56,9.40
2011,10,16,11,57,9.40
2011,10,16,11,58,9.40
2011,10,16,11,59,9.40
2011,10,16,12,00,9.50
2011,10,16,12,01,9.50
2011,10,16,12,02,9.50
2011,10,16,12,03,9.50
2011,10,16,12,04,9.60
2011,10,16,12,05,9.60
2011,10,16,12,06,9.60
2011,10,16,12,07,9.60
2011,10,16,12,08,9.60
2011,10,16,12,09,9.60
2011,10,16,12,10,9.60
2011,10,16,12,11,9.50
2011,10,16,12,12,9.50
2011,10,16,12,13,9.40
2011,10,16,12,14,9.40
2011,10,16,12,15,9.40
2011,10,16,12,16,9.40
2011,10,16,12,17,9.50
2011,10,16,12,18,9.40
2011,10,16,12,19,9.40
2011,10,16,12,20,9.30
2011,10,16,12,21,9.30
2011,10,16,12,22,9.30
2011,10,16,12,23,9.40
2011,10,16,12,24,9.40
2011,10,16,12,25,9.40
2011,10,16,12,26,9.40
2011,10,16,12,27,9.40
2011,10,16,12,28,9.40
2011,10,16,12,29,9.30
2011,10,16,12,30,9.30
2011,10,16,12,31,9.30
2011,10,16,12,32,9.30
2011,10,16,12,33,9.30
2011,10,16,12,34,9.30
2011,10,16,12,35,9.30
2011,10,16,12,36,9.30
2011,10,16,12,37,9.30
2011,10,16,12,38,9.30
2011,10,16,12,39,9.30
2011,10,16,12,40,9.30
2011,10,16,12,41,9.30
2011,10,16,12,42,9.30
2011,10,16,12,43,9.30
2011,10,16,12,44,9.30
2011,10,16,12,45,9.30
2011,10,16,12,46,9.30
2011,10,16,12,47,9.40
2011,10,16,12,48,9.40
2011,10,16,12,49,9.40
2011,10,16,12,50,9.40
2011,10,16,12,51,9.40
2011,10,16,12,52,9.50
2011,10,16,12,53,9.50
2011,10,16,12,54,9.50
2011,10,16,12,55,9.60
2011,10,16,12,56,9.60
2011,10,16,12,57,9.50
2011,10,16,12,58,9.50
2011,10,16,12,59,9.50
2011,10,16,13,00,9.50
2011,10,16,13,01,9.50
2011,10,16,13,02,9.50
2011,10,16,13,03,9.50
2011,10,16,13,04,9.50
2011,10,16,13,05,9.60
2011,10,16,13,06,9.60
2011,10,16,13,07,9.60
2011,10,16,13,08,9.60
2011,10,16,13,09,9.60
2011,10,16,13,10,9.60
2011,10,16,13,11,9.60
2011,10,16,13,12,9.60
2011,10,16,13,13,9.60
2011,10,16,13,14,9.60
2011,10,16,13,15,9.60
2011,10,16,13,16,9.60
2011,10,16,13,17,9.70
2011,10,16,13,18,9.70
2011,10,16,13,19,9.70
2011,10,16,13,20,9.70
2011,10,16,13,21,9.80
2011,10,16,13,22,9.80
2011,10,16,13,23,9.80
2011,10,16,13,24,9.90
2011,10,16,13,25,9.90
2011,10,16,13,26,9.90
2011,10,16,13,27,9.90
2011,10,16,13,28,9.80
2011,10,16,13,29,9.80
2011,10,16,13,30,9.80
2011,10,16,13,31,9.80
2011,10,16,13,32,9.80
2011,10,16,13,33,9.80
2011,10,16,13,34,9.90
2011,10,16,13,35,9.90
2011,10,16,13,36,9.90
2011,10,16,13,37,9.90
2011,10,16,13,38,9.90
2011,10,16,13,39,10.00
2011,10,16,13,40,10.00
2011,10,16,13,41,10.00
2011,10,16,13,42,10.10
2011,10,16,13,43,10.10
2011,10,16,13,44,10.10
2011,10,16,13,45,10.10
2011,10,16,13,46,10.10
2011,10,16,13,47,10.00
2011,10,16,13,48,10.00
2011,10,16,13,49,10.00
2011,10,16,13,50,10.10
2011,10,16,13,51,10.10
2011,10,16,13,52,10.10
2011,10,16,13,53,10.00
2011,10,16,13,54,10.00
2011,10,16,13,55,10.00
2011,10,16,13,56,10.00
2011,10,16,13,57,10.00
2011,10,16,13,58,10.00
2011,10,16,13,59,10.10
2011,10,16,14,00,10.10
2011,10,16,14,01,10.10
2011,10,16,14,02,10.10
2011,10,16,14,03,10.00
2011,10,16,14,04,10.00
2011,10,16,14,05,10.00
2011,10,16,14,06,10.00
2011,10,16,14,07,10.00
2011,10,16,14,08,10.00
2011,10,16,14,09,9.90
2011,10,16,14,10,9.90
2011,10,16,14,11,10.00
2011,10,16,14,12,10.00
2011,10,16,14,13,10.00
2011,10,16,14,14,10.00
2011,10,16,14,15,10.10
2011,10,16,14,16,10.10
2011,10,16,14,17,10.20
2011,10,16,14,18,10.20
2011,10,16,14,19,10.20
2011,10,16,14,20,10.20
2011,10,16,14,21,10.20
2011,10,16,14,22,10.20
2011,10,16,14,23,10.20
2011,10,16,14,24,10.20
2011,10,16,14,25,10.30
2011,10,16,14,26,10.30
2011,10,16,14,27,10.30
2011,10,16,14,28,10.30
2011,10,16,14,29,10.30
2011,10,16,14,30,10.30
2011,10,16,14,31,10.30
2011,10,16,14,32,10.30
2011,10,16,14,33,10.30
2011,10,16,14,34,10.30
2011,10,16,14,35,10.30
2011,10,16,14,36,10.30
2011,10,16,14,37,10.30
2011,10,16,14,38,10.30
2011,10,16,14,39,10.30
2011,10,16,14,40,10.30
2011,10,16,14,41,10.40
2011,10,16,14,42,10.40
2011,10,16,14,43,10.40
2011,10,16,14,44,10.40
2011,10,16,14,45,10.40
2011,10,16,14,46,10.40
2011,10,16,14,47,10.40
2011,10,16,14,48,10.40
2011,10,16,14,49,10.40
2011,10,16,14,50,10.40
2011,10,16,14,51,10.40
2011,10,16,14,52,10.40
2011,10,16,14,53,10.40
2011,10,16,14,54,10.40
2011,10,16,14,55,10.40
2011,10,16,14,56,10.50
2011,10,16,14,57,10.50
2011,10,16,14,58,10.50
2011,10,16,14,59,10.50
2011,10,16,15,00,10.40
2011,10,16,15,01,10.40
2011,10,16,15,02,10.40
2011,10,16,15,03,10.40
2011,10,16,15,04,10.40
2011,10,16,15,05,10.40
2011,10,16,15,06,10.40
2011,10,16,15,07,10.40
2011,10,16,15,08,10.40
2011,10,16,15,09,10.40
2011,10,16,15,10,10.40
2011,10,16,15,11,10.40
2011,10,16,15,12,10.40
2011,10,16,15,13,10.50
2011,10,16,15,14,10.50
2011,10,16,15,15,10.50
2011,10,16,15,16,10.50
2011,10,16,15,17,10.50
2011,10,16,15,18,10.50
2011,10,16,15,19,10.60
2011,10,16,15,20,10.60
2011,10,16,15,21,10.60
2011,10,16,15,22,10.70
2011,10,16,15,23,10.70
2011,10,16,15,24,10.70
2011,10,16,15,25,10.70
2011,10,16,15,26,10.70
2011,10,16,15,27,10.70
2011,10,16,15,28,10.60
2011,10,16,15,29,10.60
2011,10,16,15,30,10.60
2011,10,16,15,31,10.60
2011,10,16,15,32,10.60
2011,10,16,15,33,10.60
2011,10,16,15,34,10.50
2011,10,16,15,35,10.50
2011,10,16,15,36,10.50
2011,10,16,15,37,10.40
2011,10,16,15,38,10.40
2011,10,16,15,39,10.40
2011,10,16,15,40,10.40
2011,10,16,15,41,10.50
2011,10,16,15,42,10.50
2011,10,16,15,43,10.60
2011,10,16,15,44,10.60
2011,10,16,15,45,10.60
2011,10,16,15,46,10.60
2011,10,16,15,47,10.60
2011,10,16,15,48,10.70
2011,10,16,15,49,10.70
2011,10,16,15,50,10.70
2011,10,16,15,51,10.70
2011,10,16,15,52,10.80
2011,10,16,15,53,10.70
2011,10,16,15,54,10.70
2011,10,16,15,55,10.70
2011,10,16,15,56,10.70
2011,10,16,15,57,10.60
2011,10,16,15,58,10.60
2011,10,16,15,59,10.50
2011,10,16,16,00,10.40
2011,10,16,16,01,10.40
2011,10,16,16,02,10.30
2011,10,16,16,03,10.30
2011,10,16,16,04,10.30
2011,10,16,16,05,10.20
2011,10,16,16,06,10.20
2011,10,16,16,07,10.20
2011,10,16,16,08,10.20
2011,10,16,16,09,10.20
2011,10,16,16,10,10.20
2011,10,16,16,11,10.20
2011,10,16,16,12,10.20
2011,10,16,16,13,10.20
2011,10,16,16,14,10.30
2011,10,16,16,15,10.30
2011,10,16,16,16,10.30
2011,10,16,16,17,10.30
2011,10,16,16,18,10.30
2011,10,16,16,19,10.40
2011,10,16,16,20,10.40
2011,10,16,16,21,10.40
2011,10,16,16,22,10.50
2011,10,16,16,23,10.50
2011,10,16,16,24,10.50
2011,10,16,16,25,10.60
2011,10,16,16,26,10.60
2011,10,16,16,27,10.60
2011,10,16,16,28,10.60
2011,10,16,16,29,10.60
2011,10,16,16,30,10.60
2011,10,16,16,31,10.60
2011,10,16,16,32,10.60
2011,10,16,16,33,10.60
2011,10,16,16,34,10.50
2011,10,16,16,35,10.50
2011,10,16,16,36,10.50
2011,10,16,16,37,10.40
2011,10,16,16,38,10.40
2011,10,16,16,39,10.40
2011,10,16,16,40,10.40
2011,10,16,16,41,10.30
2011,10,16,16,42,10.30
2011,10,16,16,43,10.30
2011,10,16,16,44,10.20
2011,10,16,16,45,10.20
2011,10,16,16,46,10.20
2011,10,16,16,47,10.20
2011,10,16,16,48,10.20
2011,10,16,16,49,10.20
2011,10,16,16,50,10.20
2011,10,16,16,51,10.10
2011,10,16,16,52,10.10
2011,10,16,16,53,10.10
2011,10,16,16,54,10.10
2011,10,16,16,55,10.10
2011,10,16,16,56,10.10
2011,10,16,16,57,10.10
2011,10,16,16,58,10.10
2011,10,16,16,59,10.10
2011,10,16,17,00,10.10
2011,10,16,17,01,10.10
2011,10,16,17,02,10.10
2011,10,16,17,03,10.00
2011,10,16,17,04,10.00
2011,10,16,17,05,10.00
2011,10,16,17,06,9.90
2011,10,16,17,07,9.90
2011,10,16,17,08,9.90
2011,10,16,17,09,9.90
2011,10,16,17,10,9.90
2011,10,16,17,11,9.90
2011,10,16,17,12,9.90
2011,10,16,17,13,9.90
2011,10,16,17,14,9.90
2011,10,16,17,15,9.90
2011,10,16,17,16,9.80
2011,10,16,17,17,9.80
2011,10,16,17,18,9.80
2011,10,16,17,19,9.80
2011,10,16,17,20,9.80
2011,10,16,17,21,9.80
2011,10,16,17,22,9.80
2011,10,16,17,23,9.80
2011,10,16,17,24,9.80
2011,10,16,17,25,9.70
2011,10,16,17,26,9.70
2011,10,16,17,27,9.70
2011,10,16,17,28,9.70
2011,10,16,17,29,9.70
2011,10,16,17,30,9.60
2011,10,16,17,31,9.60
2011,10,16,17,32,9.60
2011,10,16,17,33,9.60
2011,10,16,17,34,9.60
2011,10,16,17,35,9.60
2011,10,16,17,36,9.50
2011,10,16,17,37,9.50
2011,10,16,17,38,9.50
2011,10,16,17,39,9.50
2011,10,16,17,40,9.50
2011,10,16,17,41,9.50
2011,10,16,17,42,9.50
2011,10,16,17,43,9.40
2011,10,16,17,44,9.40
2011,10,16,17,45,9.40
2011,10,16,17,46,9.40
2011,10,16,17,47,9.40
2011,10,16,17,48,9.30
2011,10,16,17,49,9.30
2011,10,16,17,50,9.30
2011,10,16,17,51,9.30
2011,10,16,17,52,9.30
2011,10,16,17,53,9.20
2011,10,16,17,54,9.20
2011,10,16,17,55,9.20
2011,10,16,17,56,9.20
2011,10,16,17,57,9.20
2011,10,16,17,58,9.10
2011,10,16,17,59,9.10
2011,10,16,18,00,9.10
2011,10,16,18,01,9.10
2011,10,16,18,02,9.10
2011,10,16,18,03,9.00
2011,10,16,18,04,9.00
2011,10,16,18,05,9.00
2011,10,16,18,06,9.00
2011,10,16,18,07,9.00
2011,10,16,18,08,9.00
2011,10,16,18,09,9.00
2011,10,16,18,10,9.00
2011,10,16,18,11,9.00
2011,10,16,18,12,9.00
2011,10,16,18,13,9.00
2011,10,16,18,14,9.00
2011,10,16,18,15,9.00
2011,10,16,18,16,9.00
2011,10,16,18,17,9.00
2011,10,16,18,18,9.00
2011,10,16,18,19,9.00
2011,10,16,18,20,8.90
2011,10,16,18,21,8.90
2011,10,16,18,22,8.90
2011,10,16,18,23,8.90
2011,10,16,18,24,8.90
2011,10,16,18,25,8.90
2011,10,16,18,26,8.90
2011,10,16,18,27,8.90
2011,10,16,18,28,8.90
2011,10,16,18,29,8.90
2011,10,16,18,30,8.90
2011,10,16,18,31,8.90
2011,10,16,18,32,8.90
2011,10,16,18,33,8.90
2011,10,16,18,34,8.90
2011,10,16,18,35,8.90
2011,10,16,18,36,8.90
2011,10,16,18,37,8.90
2011,10,16,18,38,8.90
2011,10,16,18,39,9.00
2011,10,16,18,40,9.00
2011,10,16,18,41,9.00
2011,10,16,18,42,9.00
2011,10,16,18,43,9.00
2011,10,16,18,44,9.00
2011,10,16,18,45,9.00
2011,10,16,18,46,9.00
2011,10,16,18,47,8.90
2011,10,16,18,48,8.90
2011,10,16,18,49,8.90
2011,10,16,18,50,8.90
2011,10,16,18,51,8.80
2011,10,16,18,52,8.80
2011,10,16,18,53,8.80
2011,10,16,18,54,8.80
2011,10,16,18,55,8.80
2011,10,16,18,56,8.80